OE3OMK Weather Reports


time (UTC)temp
C
wind
direction
speed
KPH
gust
KPH
rain 1hr
cm
rain 24hr
cm
rain mn
cm
humidity
%
barometer
mb
20260905235416 13 191 0.0 0.0 0.00 0.00 0.00 73 1026.0
20260905235017 13 283 0.0 0.0 0.00 0.00 0.00 73 1026.0
20260905234617 13 315 0.0 0.0 0.00 0.00 0.00 73 1026.0
20260905233817 13 15 0.0 0.0 0.00 0.00 0.00 74 1025.0
20260905233417 13 142 0.0 0.0 0.00 0.00 0.00 73 1025.0
20260905233017 13 129 0.0 1.6 0.00 0.00 0.00 74 1025.0
20260905232617 13 79 3.2 4.8 0.00 0.00 0.00 74 1025.0
20260905232218 13 173 0.0 0.0 0.00 0.00 0.00 74 1025.0
20260905231817 13 38 0.0 1.6 0.00 0.00 0.00 75 1025.0
20260905231418 12 235 0.0 3.2 0.00 0.00 0.00 75 1025.0
20260905231017 13 201 0.0 1.6 0.00 0.00 0.00 75 1025.0
20260905230617 12 17 1.6 3.2 0.00 0.00 0.00 75 1025.0
20260905230217 13 179 1.6 1.6 0.00 0.00 0.00 75 1025.0
20260905225816 13 283 0.0 1.6 0.00 0.00 0.00 75 1025.0
20260905225418 13 281 1.6 1.6 0.00 0.00 0.00 75 1025.0
20260905225016 13 25 0.0 0.0 0.00 0.00 0.00 75 1025.0
20260905224617 13 166 0.0 1.6 0.00 0.00 0.00 75 1025.0
20260905224217 13 274 1.6 3.2 0.00 0.00 0.00 74 1025.0
20260905223817 13 242 0.0 0.0 0.00 0.00 0.00 74 1025.0
20260905223017 13 291 1.6 1.6 0.00 0.00 0.00 75 1025.0
20260905222618 13 74 3.2 3.2 0.00 0.00 0.00 75 1025.0
20260905222218 13 269 0.0 1.6 0.00 0.00 0.00 76 1025.0
20260905221817 13 216 0.0 0.0 0.00 0.00 0.00 76 1025.0
20260905221420 13 269 0.0 0.0 0.00 0.00 0.00 76 1025.0
20260905221049 13 89 0.0 1.6 0.00 0.00 0.00 76 1025.0
20260905221017 13 89 0.0 1.6 0.00 0.00 0.00 76 1025.0
20260905220617 13 224 0.0 0.0 0.00 0.00 0.00 75 1025.0
20260905220217 13 224 0.0 1.6 0.00 0.00 0.00 76 1025.0
20260905215816 13 25 0.0 0.0 0.00 0.00 0.00 76 1025.0
20260905215416 13 50 0.0 0.0 0.00 0.00 0.00 75 1025.0
20260905215016 13 89 0.0 0.0 0.00 0.00 0.00 76 1025.0
20260905214617 13 162 0.0 1.6 0.00 0.00 0.00 76 1025.0
20260905213816 13 198 0.0 3.2 0.00 0.00 0.00 76 1025.0
20260905213417 13 68 0.0 3.2 0.00 0.00 0.00 76 1025.0
20260905212617 13 186 0.0 0.0 0.00 0.00 0.00 74 1025.0
20260905212217 13 343 0.0 0.0 0.00 0.00 0.00 74 1025.0
20260905211817 13 326 0.0 1.6 0.00 0.00 0.00 74 1025.0
20260905211417 13 114 1.6 3.2 0.00 0.00 0.00 74 1025.0
20260905210217 13 146 0.0 0.0 0.00 0.00 0.00 73 1025.0
20260905205818 13 355 1.6 1.6 0.00 0.00 0.00 74 1025.0
20260905205417 13 125 0.0 1.6 0.00 0.00 0.00 74 1024.0
20260905204618 13 48 1.6 3.2 0.00 0.00 0.00 75 1025.0
20260905204217 13 164 0.0 0.0 0.00 0.00 0.00 74 1025.0
20260905203816 13 212 0.0 0.0 0.00 0.00 0.00 73 1025.0
20260905203417 13 272 0.0 1.6 0.00 0.00 0.00 74 1025.0
20260905203017 14 117 0.0 0.0 0.00 0.00 0.00 73 1025.0
20260905202619 14 315 0.0 0.0 0.00 0.00 0.00 72 1025.0
20260905202217 14 49 0.0 0.0 0.00 0.00 0.00 72 1025.0
20260905201817 14 224 0.0 0.0 0.00 0.00 0.00 71 1025.0
20260905201417 14 144 0.0 1.6 0.00 0.00 0.00 71 1025.0
20260905201017 14 282 0.0 0.0 0.00 0.00 0.00 71 1025.0
20260905200617 14 136 0.0 1.6 0.00 0.00 0.00 71 1025.0
20260905195818 14 292 1.6 1.6 0.00 0.00 0.00 72 1024.0
20260905194616 15 44 0.0 0.0 0.00 0.00 0.00 69 1024.0
20260905194216 15 124 0.0 0.0 0.00 0.00 0.00 68 1024.0
20260905193817 15 321 0.0 0.0 0.00 0.00 0.00 68 1024.0
20260905193417 15 96 0.0 0.0 0.00 0.00 0.00 67 1024.0
20260905193016 15 141 0.0 1.6 0.00 0.00 0.00 65 1024.0
20260905192617 16 32 0.0 0.0 0.00 0.00 0.00 65 1024.0
20260905192217 16 83 1.6 3.2 0.00 0.00 0.00 63 1024.0
20260905191817 16 154 0.0 0.0 0.00 0.00 0.00 60 1024.0
20260905191018 16 164 0.0 0.0 0.00 0.00 0.00 60 1024.0
20260905190618 16 37 0.0 0.0 0.00 0.00 0.00 58 1024.0
20260905190217 17 255 0.0 0.0 0.00 0.00 0.00 56 1024.0
20260905185818 17 217 0.0 0.0 0.00 0.00 0.00 57 1024.0
20260905185417 17 322 0.0 0.0 0.00 0.00 0.00 58 1024.0
20260905185017 18 80 0.0 1.6 0.00 0.00 0.00 54 1024.0
20260905184618 18 184 0.0 1.6 0.00 0.00 0.00 54 1024.0
20260905184216 18 242 1.6 1.6 0.00 0.00 0.00 53 1024.0
20260905183817 19 142 0.0 0.0 0.00 0.00 0.00 51 1024.0
20260905183416 19 154 0.0 0.0 0.00 0.00 0.00 49 1024.0
20260905183019 20 129 0.0 0.0 0.00 0.00 0.00 48 1024.0
20260905182616 20 148 0.0 1.6 0.00 0.00 0.00 46 1023.0
20260905182217 20 290 1.6 3.2 0.00 0.00 0.00 45 1023.0
20260905181817 20 305 0.0 0.0 0.00 0.00 0.00 45 1023.0
20260905181419 21 315 0.0 4.8 0.00 0.00 0.00 44 1023.0
20260905180217 21 291 3.2 4.8 0.00 0.00 0.00 43 1023.0
20260905175817 21 343 6.4 6.4 0.00 0.00 0.00 43 1023.0
20260905175017 21 286 4.8 8.0 0.00 0.00 0.00 44 1023.0
20260905173817 22 20 4.8 4.8 0.00 0.00 0.00 43 1023.0
20260905173416 22 321 6.4 8.0 0.00 0.00 0.00 43 1023.0
20260905173017 22 345 3.2 3.2 0.00 0.00 0.00 43 1023.0
20260905172616 22 335 6.4 6.4 0.00 0.00 0.00 43 1023.0
20260905172216 22 273 3.2 4.8 0.00 0.00 0.00 42 1023.0
20260905171418 22 341 9.7 12.9 0.00 0.00 0.00 42 1023.0
20260905171017 22 347 4.8 6.4 0.00 0.00 0.00 43 1022.0
20260905170618 22 325 6.4 8.0 0.00 0.00 0.00 42 1022.0
20260905165817 22 2 6.4 6.4 0.00 0.00 0.00 42 1022.0
20260905165418 22 358 11.3 12.9 0.00 0.00 0.00 42 1022.0
20260905165017 23 255 3.2 6.4 0.00 0.00 0.00 42 1022.0
20260905164617 23 281 3.2 4.8 0.00 0.00 0.00 41 1022.0
20260905164217 23 279 4.8 4.8 0.00 0.00 0.00 41 1022.0
20260905163816 23 4 4.8 6.4 0.00 0.00 0.00 40 1022.0
20260905163417 23 286 4.8 6.4 0.00 0.00 0.00 40 1022.0
20260905163016 23 337 4.8 6.4 0.00 0.00 0.00 40 1022.0
20260905161816 23 269 0.0 3.2 0.00 0.00 0.00 40 1022.0
20260905161418 23 333 4.8 4.8 0.00 0.00 0.00 39 1022.0
20260905161018 24 292 1.6 4.8 0.00 0.00 0.00 38 1022.0
20260905160617 24 306 3.2 6.4 0.00 0.00 0.00 38 1022.0
20260905160217 25 352 3.2 3.2 0.00 0.00 0.00 36 1022.0
20260905155817 24 1 4.8 4.8 0.00 0.00 0.00 36 1022.0
20260905155416 24 346 9.7 14.5 0.00 0.00 0.00 37 1022.0
20260905155016 24 102 0.0 1.6 0.00 0.00 0.00 37 1022.0
20260905154617 24 350 0.0 3.2 0.00 0.00 0.00 36 1022.0
20260905153816 25 237 0.0 1.6 0.00 0.00 0.00 35 1022.0
20260905153418 25 350 4.8 8.0 0.00 0.00 0.00 35 1022.0
20260905153016 25 358 9.7 12.9 0.00 0.00 0.00 34 1022.0
20260905152617 25 358 9.7 11.3 0.00 0.00 0.00 34 1022.0
20260905151817 25 356 8.0 14.5 0.00 0.00 0.00 34 1022.0
20260905151017 26 354 9.7 9.7 0.00 0.00 0.00 34 1022.0
20260905150617 26 205 3.2 3.2 0.00 0.00 0.00 34 1022.0
20260905150217 25 353 4.8 6.4 0.00 0.00 0.00 33 1022.0
20260905145817 25 307 4.8 6.4 0.00 0.00 0.00 34 1022.0
20260905145417 25 342 4.8 6.4 0.00 0.00 0.00 33 1022.0
20260905145017 26 344 14.5 17.7 0.00 0.00 0.00 32 1022.0
20260905144617 26 319 6.4 9.7 0.00 0.00 0.00 32 1022.0
20260905143817 26 284 9.7 12.9 0.00 0.00 0.00 33 1022.0
20260905143416 26 348 11.3 12.9 0.00 0.00 0.00 34 1022.0
20260905143016 26 303 3.2 6.4 0.00 0.00 0.00 34 1022.0
20260905142616 26 355 9.7 11.3 0.00 0.00 0.00 35 1022.0
20260905141817 25 340 6.4 12.9 0.00 0.00 0.00 36 1022.0
20260905141418 26 354 6.4 11.3 0.00 0.00 0.00 35 1022.0
20260905141017 26 355 3.2 8.0 0.00 0.00 0.00 35 1022.0
20260905140619 26 0 12.9 14.5 0.00 0.00 0.00 36 1022.0
20260905140218 26 16 8.0 16.1 0.00 0.00 0.00 34 1022.0
20260905135817 26 352 8.0 8.0 0.00 0.00 0.00 35 1022.0
20260905135417 26 6 6.4 9.7 0.00 0.00 0.00 34 1022.0
20260905135017 26 343 8.0 9.7 0.00 0.00 0.00 33 1022.0
20260905134617 26 315 8.0 8.0 0.00 0.00 0.00 34 1022.0
20260905134217 26 345 3.2 8.0 0.00 0.00 0.00 33 1022.0
20260905133416 26 357 17.7 17.7 0.00 0.00 0.00 33 1022.0
20260905132616 26 7 9.7 9.7 0.00 0.00 0.00 35 1022.0
20260905131416 26 0 12.9 14.5 0.00 0.00 0.00 35 1022.0
20260905131017 26 357 6.4 8.0 0.00 0.00 0.00 35 1022.0
20260905130617 25 0 8.0 11.3 0.00 0.00 0.00 35 1022.0
20260905125817 25 0 11.3 12.9 0.00 0.00 0.00 35 1022.0
20260905125418 25 332 9.7 11.3 0.00 0.00 0.00 35 1022.0
20260905125017 25 268 8.0 14.5 0.00 0.00 0.00 36 1022.0
20260905124618 25 335 4.8 14.5 0.00 0.00 0.00 37 1022.0
20260905124218 25 306 8.0 12.9 0.00 0.00 0.00 37 1022.0
20260905123816 24 352 9.7 12.9 0.00 0.00 0.00 39 1022.0
20260905123416 24 345 6.4 8.0 0.00 0.00 0.00 41 1022.0
20260905123017 24 356 6.4 11.3 0.00 0.00 0.00 43 1022.0
20260905122619 23 8 0.0 8.0 0.00 0.00 0.00 45 1022.0
20260905121816 23 104 0.0 1.6 0.00 0.00 0.00 46 1022.0
20260905121417 23 106 3.2 4.8 0.00 0.00 0.00 46 1022.0
20260905120617 23 91 3.2 4.8 0.00 0.00 0.00 48 1022.0
20260905120218 23 344 4.8 6.4 0.00 0.00 0.00 48 1022.0
20260905115817 23 1 6.4 6.4 0.00 0.00 0.00 50 1022.0
20260905115417 22 58 0.0 1.6 0.00 0.00 0.00 50 1022.0
20260905115017 22 5 4.8 6.4 0.00 0.00 0.00 48 1022.0
20260905114617 22 359 3.2 3.2 0.00 0.00 0.00 49 1022.0
20260905114217 22 3 4.8 6.4 0.00 0.00 0.00 50 1022.0
20260905113817 22 44 1.6 3.2 0.00 0.00 0.00 48 1022.0
20260905113417 22 23 3.2 6.4 0.00 0.00 0.00 48 1022.0
20260905113016 22 359 8.0 8.0 0.00 0.00 0.00 49 1022.0
20260905112618 22 25 1.6 3.2 0.00 0.00 0.00 49 1022.0
20260905112216 22 36 3.2 6.4 0.00 0.00 0.00 50 1022.0
20260905111818 22 18 4.8 8.0 0.00 0.00 0.00 50 1022.0
20260905110217 21 316 3.2 4.8 0.00 0.00 0.00 51 1022.0
20260905105817 21 60 1.6 3.2 0.00 0.00 0.00 52 1022.0
20260905105417 21 303 3.2 4.8 0.00 0.00 0.00 52 1022.0
20260905105017 21 39 3.2 6.4 0.00 0.00 0.00 51 1022.0
20260905104617 21 345 3.2 6.4 0.00 0.00 0.00 52 1022.0
20260905103912 21 343 3.2 4.8 0.00 0.00 0.00 52 1022.0
20260905103817 21 343 3.2 4.8 0.00 0.00 0.00 52 1022.0
20260905103418 21 353 6.4 9.7 0.00 0.00 0.00 51 1022.0
20260905103017 21 0 9.7 11.3 0.00 0.00 0.00 52 1022.0
20260905102617 21 303 1.6 4.8 0.00 0.00 0.00 51 1022.0
20260905101817 21 30 6.4 6.4 0.00 0.00 0.00 51 1023.0
20260905101017 21 54 4.8 11.3 0.00 0.00 0.00 50 1022.0
20260905100217 21 9 12.9 19.3 0.00 0.00 0.00 50 1022.0
20260905095817 22 0 11.3 14.5 0.00 0.00 0.00 50 1022.0
20260905095017 22 2 20.9 24.1 0.00 0.00 0.00 48 1022.0
20260905094617 23 310 4.8 9.7 0.00 0.00 0.00 47 1022.0
20260905094217 23 350 9.7 11.3 0.00 0.00 0.00 47 1022.0
20260905093817 22 354 11.3 12.9 0.00 0.00 0.00 49 1022.0
20260905093017 22 293 3.2 3.2 0.00 0.00 0.00 53 1022.0
20260905092617 21 349 4.8 6.4 0.00 0.00 0.00 49 1022.0
20260905092217 21 17 6.4 11.3 0.00 0.00 0.00 51 1022.0
20260905091818 21 0 9.7 25.7 0.00 0.00 0.00 51 1022.0
20260905091017 21 6 6.4 11.3 0.00 0.00 0.00 52 1022.0
20260905090216 21 10 9.7 12.9 0.00 0.00 0.00 52 1022.0
20260905085848 20 111 8.0 8.0 0.00 0.00 0.00 54 1022.0
20260905085816 20 111 8.0 8.0 0.00 0.00 0.00 54 1022.0
20260905085417 20 340 3.2 4.8 0.00 0.00 0.00 53 1023.0
20260905085017 20 307 3.2 6.4 0.00 0.00 0.00 54 1023.0
20260905084617 20 58 3.2 3.2 0.00 0.00 0.00 54 1023.0
20260905084217 20 115 4.8 4.8 0.00 0.00 0.00 53 1023.0
20260905083817 20 142 6.4 6.4 0.00 0.00 0.00 53 1022.0
20260905083417 20 337 3.2 3.2 0.00 0.00 0.00 53 1023.0
20260905083017 20 30 1.6 3.2 0.00 0.00 0.00 53 1023.0
20260905082217 20 359 6.4 6.4 0.00 0.00 0.00 53 1022.0
20260905081817 20 87 6.4 6.4 0.00 0.00 0.00 52 1022.0
20260905081419 19 19 4.8 4.8 0.00 0.00 0.00 52 1022.0
20260905081016 19 358 6.4 6.4 0.00 0.00 0.00 53 1023.0
20260905080618 19 0 3.2 3.2 0.00 0.00 0.00 53 1023.0
20260905080216 19 352 6.4 6.4 0.00 0.00 0.00 52 1023.0
20260905075817 19 327 4.8 4.8 0.00 0.00 0.00 52 1023.0
20260905075416 19 358 9.7 9.7 0.00 0.00 0.00 51 1023.0
20260905075017 19 15 3.2 3.2 0.00 0.00 0.00 52 1023.0
20260905074617 19 23 0.0 6.4 0.00 0.00 0.00 52 1023.0
20260905074217 19 352 4.8 4.8 0.00 0.00 0.00 51 1023.0
20260905073817 19 331 14.5 19.3 0.00 0.00 0.00 51 1023.0
20260905073417 18 9 9.7 11.3 0.00 0.00 0.00 51 1023.0
20260905073017 18 338 9.7 9.7 0.00 0.00 0.00 51 1023.0
20260905072617 18 355 4.8 12.9 0.00 0.00 0.00 53 1023.0
20260905072218 18 182 1.6 3.2 0.00 0.00 0.00 52 1023.0
20260905071817 18 327 6.4 9.7 0.00 0.00 0.00 52 1023.0
20260905071017 19 329 3.2 4.8 0.00 0.00 0.00 53 1023.0
20260905070617 18 357 11.3 12.9 0.00 0.00 0.00 53 1023.0
20260905070217 18 0 6.4 12.9 0.00 0.00 0.00 54 1023.0
20260905065817 18 309 4.8 6.4 0.00 0.00 0.00 54 1023.0
20260905064616 18 37 4.8 6.4 0.00 0.00 0.00 56 1023.0
20260905064216 18 8 3.2 3.2 0.00 0.00 0.00 56 1023.0
20260905063817 18 111 6.4 6.4 0.00 0.00 0.00 56 1022.0
20260905063417 18 353 6.4 11.3 0.00 0.00 0.00 56 1022.0
20260905063017 18 121 1.6 4.8 0.00 0.00 0.00 56 1022.0
20260905062617 18 355 9.7 9.7 0.00 0.00 0.00 56 1022.0
20260905061817 19 125 6.4 16.1 0.00 0.00 0.00 55 1022.0
20260905061417 19 179 3.2 8.0 0.00 0.00 0.00 55 1022.0
20260905061018 19 318 1.6 1.6 0.00 0.00 0.00 55 1022.0
20260905060617 19 30 0.0 4.8 0.00 0.00 0.00 54 1022.0
20260905060217 19 77 3.2 6.4 0.00 0.00 0.00 54 1022.0
20260905055818 19 41 4.8 6.4 0.00 0.00 0.00 55 1022.0
20260905055016 19 298 8.0 9.7 0.00 0.00 0.00 55 1021.0
20260905054616 19 325 8.0 8.0 0.00 0.00 0.00 57 1021.0
20260905053815 19 145 3.2 6.4 0.00 0.00 0.00 57 1020.0
20260905053416 19 303 12.9 16.1 0.00 0.00 0.00 58 1020.0
20260905053016 19 1 1.6 6.4 0.00 0.00 0.00 57 1020.0
20260905052616 20 100 3.2 19.3 0.00 0.00 0.00 57 1020.0
20260905052218 20 121 9.7 14.5 0.00 0.00 0.00 57 1020.0
20260905051816 20 264 3.2 9.7 0.00 0.00 0.00 57 1020.0
20260905051417 20 296 9.7 9.7 0.00 0.00 0.00 59 1019.0
20260905050617 20 314 12.9 17.7 0.00 0.00 0.00 60 1019.0
20260905050218 20 326 9.7 11.3 0.00 0.00 0.00 60 1019.0
20260905045817 20 338 9.7 12.9 0.00 0.00 0.00 61 1019.0
20260905045416 21 17 11.3 12.9 0.00 0.00 0.00 60 1019.0
20260905045017 22 353 12.9 14.5 0.00 0.00 0.00 58 1019.0
20260905043817 23 293 11.3 12.9 0.00 0.00 0.00 54 1018.0
20260905043416 23 329 14.5 14.5 0.00 0.00 0.00 54 1018.0
20260905043018 23 348 9.7 17.7 0.00 0.00 0.00 54 1017.0
20260905042617 23 350 9.7 11.3 0.00 0.00 0.00 54 1017.0
20260905042217 23 3 6.4 11.3 0.00 0.00 0.00 54 1018.0
20260905041817 23 328 11.3 17.7 0.00 0.00 0.00 56 1018.0
20260905041419 22 359 11.3 19.3 0.00 0.00 0.00 60 1018.0
20260905041017 20 5 14.5 20.9 0.00 0.00 0.00 66 1017.0
20260905040617 18 288 4.8 9.7 0.00 0.00 0.00 73 1017.0
20260905040217 16 245 4.8 6.4 0.00 0.00 0.00 83 1017.0
20260905035817 15 21 8.0 8.0 0.00 0.00 0.00 84 1017.0
20260905035416 15 89 3.2 4.8 0.00 0.00 0.00 84 1017.0
20260905035016 15 326 0.0 3.2 0.00 0.00 0.00 84 1017.0
20260905034616 15 240 3.2 3.2 0.00 0.00 0.00 84 1017.0
20260905034216 15 321 0.0 0.0 0.00 0.00 0.00 84 1017.0
20260905033817 15 322 0.0 1.6 0.00 0.00 0.00 85 1017.0
20260905033418 15 257 3.2 3.2 0.00 0.00 0.00 85 1017.0
20260905033018 15 191 0.0 0.0 0.00 0.00 0.00 84 1017.0
20260905032217 15 274 0.0 0.0 0.00 0.00 0.00 83 1017.0
20260905031818 15 296 0.0 1.6 0.00 0.00 0.00 83 1017.0
20260905031417 15 89 1.6 1.6 0.00 0.00 0.00 83 1017.0
20260905031017 15 292 0.0 3.2 0.00 0.00 0.00 83 1017.0
20260905030617 16 269 1.6 1.6 0.00 0.00 0.00 83 1017.0
20260905030217 16 103 0.0 0.0 0.00 0.00 0.00 83 1017.0
20260905025816 16 147 0.0 0.0 0.00 0.00 0.00 82 1017.0
20260905025416 16 159 0.0 0.0 0.00 0.00 0.00 82 1017.0
20260905025016 16 235 0.0 0.0 0.00 0.00 0.00 82 1017.0
20260905024617 16 91 0.0 0.0 0.00 0.00 0.00 82 1017.0
20260905023817 16 187 3.2 3.2 0.00 0.00 0.00 82 1017.0
20260905023017 16 129 0.0 0.0 0.00 0.00 0.00 81 1017.0
20260905022617 16 284 1.6 1.6 0.00 0.00 0.00 80 1017.0
20260905022217 16 309 0.0 0.0 0.00 0.00 0.00 80 1017.0
20260905021817 16 135 0.0 0.0 0.00 0.00 0.00 80 1017.0
20260905021417 16 91 3.2 3.2 0.00 0.00 0.00 80 1017.0
20260905021017 16 252 1.6 1.6 0.00 0.00 0.00 80 1017.0
20260905020617 16 326 0.0 0.0 0.00 0.00 0.00 79 1017.0
20260905015817 16 292 3.2 3.2 0.00 0.00 0.00 78 1017.0
20260905015418 17 230 0.0 1.6 0.00 0.00 0.00 78 1017.0
20260905015016 17 126 4.8 4.8 0.00 0.00 0.00 78 1017.0
20260905014217 17 160 3.2 3.2 0.00 0.00 0.00 78 1017.0
20260905013816 16 141 1.6 3.2 0.00 0.00 0.00 79 1017.0
20260905013416 16 278 1.6 3.2 0.00 0.00 0.00 79 1017.0
20260905013016 16 144 3.2 3.2 0.00 0.00 0.00 79 1017.0
20260905012617 17 166 0.0 1.6 0.00 0.00 0.00 78 1017.0
20260905012218 17 284 3.2 3.2 0.00 0.00 0.00 77 1017.0
20260905011017 17 149 0.0 4.8 0.00 0.00 0.00 78 1017.0
20260905010617 17 184 1.6 3.2 0.00 0.00 0.00 79 1017.0
20260905010218 17 220 3.2 3.2 0.00 0.00 0.00 78 1017.0
20260905005817 17 323 3.2 3.2 0.00 0.00 0.00 78 1017.0
20260905005017 17 280 0.0 1.6 0.00 0.00 0.00 78 1017.0
20260905004616 17 173 0.0 1.6 0.00 0.00 0.00 78 1017.0
20260905004218 17 2 0.0 0.0 0.00 0.00 0.00 78 1017.0
20260905003817 17 284 0.0 1.6 0.00 0.00 0.00 77 1017.0
20260905003416 17 187 1.6 3.2 0.00 0.00 0.00 77 1017.0
20260905003017 17 32 1.6 1.6 0.00 0.00 0.00 77 1017.0
20260905002616 17 154 0.0 0.0 0.00 0.00 0.00 76 1017.0
20260905001818 17 297 0.0 0.0 0.00 0.00 0.00 76 1017.0
20260905001417 17 283 0.0 0.0 0.00 0.00 0.00 76 1017.0
20260905001017 17 119 3.2 3.2 0.00 0.00 0.00 75 1017.0
20260905000617 17 116 3.2 4.8 0.00 0.00 0.00 76 1017.0
20260904235817 17 198 1.6 1.6 0.00 0.00 0.00 75 1017.0